Simultaneous Nadir Overpasses (SNOs) Predictions

Prediction of SNOs between NOAA-20 and NOAA-19 Satellite Orbit:

Table of predicted SNOs for the next 14.0 days since TLE Epoch: 11/2/2019
Index Date (NOAA-20) Time (NOAA-20) Lat,Lon (NOAA-20) SZA (NOAA-20 ) Date (NOAA-19) Time (NOAA-19) Lat,Lon (NOAA-19) SZA (NOAA-19 ) Distance(km) Time Diff (sec)
1 11/14/2019 15:41:06 -79.76, 88.15 80.49 11/14/2019 15:40:06 -79.78, 88.23 80.45 3.32 60
2 11/14/2019 16:31:51 79.75,-104.49 99.52 11/14/2019 16:31:02 79.78,-104.55 99.57 3.26 49
3 11/14/2019 17:22:36 -79.76, 62.75 80.46 11/14/2019 17:22:07 -79.78, 62.64 80.43 2.78 29
4 11/14/2019 18:13:22 79.79,-130.18 99.60 11/14/2019 18:13:03 79.77,-130.13 99.59 1.79 19
5 11/14/2019 19:04:07 -79.79, 37.06 80.39 11/14/2019 19:04:08 -79.77, 37.06 80.41 2.74 1
6 11/14/2019 19:54:52 79.79,-155.58 99.62 11/14/2019 19:55:03 79.79,-155.41 99.60 3.35 11
7 11/14/2019 20:45:37 -79.80, 11.66 80.36 11/14/2019 20:46:08 -79.79, 11.78 80.39 2.46 31
8 11/14/2019 21:36:22 79.79, 179.02 99.64 11/14/2019 21:37:04 79.79, 179.01 99.62 0.85 42
9 11/14/2019 22:27:07 -79.80, -13.74 80.34 11/14/2019 22:28:09 -79.78, -13.81 80.37 2.50 62




NCC Satellite Simultaneous Nadir Overpasses (SNOs) Prediction Service
